sat.trackr.live / text

‹ back to catalog

STARLINK-31904

NORAD 59657 · 2024-084D

PAYLOAD ACTIVE UNKNOWN

§ Identity

Operator
Country
US
Launch date
2024-05-06
Launch site
AFETR
Launch vehicle
Mass (kg)
RCS (m²)

Purposes: comms

External: N2YO · Heavens-Above · Gunter

§ Orbital elements

Epoch: 2026-09-21T08:01:20.605728Z

Period
94.27 min
Inclination
43.0009°
Eccentricity
0.0000752
Mean motion
15.27581807 rev/d
Perigee alt
482.5 km
Apogee alt
483.6 km
Semi-major
6,861.2 km
B*
-3.6445e-5
RAAN
16.9709°
Arg perigee
262.5293°
Mean anomaly
97.5474°
Rev number
13,429

§ Raw data

STARLINK-319041 59657U 24084D   26264.33426627 -.00001265  00000+0 -36445-4 0  99942 59657  43.0009  16.9709 0000752 262.5293  97.5474 15.27581807134294

JSON: /api/v1/satellites/59657 · /tle

For live sub-satellite position, see the globe view (requires WebGL).

§ Visibility from observer

Set your observer location to see the next 7 days of passes ≥ 10°. The values pass through the URL so the page stays shareable.

No JS? Fill the form by hand. The geolocation button needs JavaScript.